Content
SEND FEEDBACK

Daily
Averages
Monthly
Summary
United States of America

LINCOLN, ILLINOIS


Home > North America > United States > Illinois
Elevation: 555 feet     Latitude: 40 09N     Longitude: 089 24W

WEATHER
 
SELECT A DAY
Number of Records: 330,265;   Date Range: 9/6/01 - 10/19/14
 
SHARE

PRINT THIS DATA

[ ← Previous Day ]
WEATHER ALMANAC - FEBRUARY 1, 2013
[ Next Day → ]
[ °C ]   °F
Weather ElementAverageHighLow
Temperature15.1 °F23.9 °F (10:15 pm)5 °F (5:55 am)
Dewpoint4.6 °F20.8 °F (11:55 pm)-2.7 °F (5:35 am)
Humidity63.9 %89 % (11:55 pm)47 % (1:55 pm)
Barometer30.34 in30.44 in (9:35 am)30.17 in (11:55 pm)
Wind Speed5.4 mph11.5 mph (1:35 am)
Wind Gust23 mph (2:55 am)
Weather ElementAverage
Visibility9 mi
Wind DirectionSSW (193.7 °)

Weather ElementTotal
Precipitation---
Heating Degree Days50.6 (Base 65)
Averaged from 71 records on February 1, 2013
WEATHER CONDITIONS BREAKOUT
WIND DIRECTION BREAKOUT
WEATHER BY HOUR - FEBRUARY 1, 2013
[ °C ]   °F
Local TimeTemperatureDewpointHumidityBarometerVisibilityWind DirectionWind SpeedGust SpeedPrecipitationEventsConditions
12:35 AM8.6 °F1.4 °F73 %30.32 in5.0 miWNW (290°)9.2 mph21.9 mphHaze
12:55 AM8.2 °F0.9 °F72 %30.32 in7.0 miWNW (290°)10.4 mph19.6 mphMostly Cloudy
1:15 AM8.2 °F1.2 °F73 %30.33 in7.0 miWNW (290°)5.8 mph19.6 mphOvercast
1:35 AM8.4 °F1.6 °F74 %30.34 in5.0 miWest (280°)11.5 mph17.3 mphHaze
1:55 AM8.2 °F1.9 °F76 %30.34 in4.0 miWNW (290°)9.2 mph18.4 mphHaze
2:15 AM8.1 °F2.3 °F77 %30.34 in4.0 miWNW (290°)10.4 mph20.7 mphHaze
2:35 AM7.7 °F1.6 °F76 %30.35 in7.0 miWNW (290°)10.4 mph19.6 mphOvercast
2:55 AM6.8 °F-0.4 °F72 %30.36 in10.0 miWest (280°)10.4 mph23.0 mphMostly Cloudy
3:15 AM7.3 °F-1.3 °F68 %30.35 in10.0 miWNW (290°)10.4 mph18.4 mphClear
3:35 AM7.2 °F-0.8 °F70 %30.36 in7.0 miWNW (300°)10.4 mph19.6 mphScattered Clouds
3:55 AM6.8 °F-2.0 °F67 %30.36 in10.0 miWNW (290°)8.1 mph16.1 mphScattered Clouds
4:15 AM6.6 °F-2.2 °F67 %30.36 in10.0 miWNW (290°)4.6 mphClear
4:35 AM6.4 °F-2.2 °F68 %30.36 in10.0 miWNW (300°)5.8 mphClear
4:55 AM6.3 °F-2.0 °F69 %30.36 in10.0 miWNW (290°)6.9 mphClear
5:15 AM5.9 °F-2.4 °F69 %30.37 in10.0 miWNW (300°)3.5 mphClear
5:35 AM5.9 °F-2.7 °F68 %30.37 in10.0 miWNW (290°)8.1 mphClear
5:55 AM5.0 °F-2.2 °F72 %30.38 in10.0 miWNW (290°)5.8 mphClear
6:15 AM5.5 °F-2.4 °F70 %30.39 in10.0 miWNW (290°)3.5 mphClear
6:35 AM5.5 °F-2.0 °F71 %30.39 in10.0 miWNW (290°)5.8 mphClear
6:55 AM5.0 °F-0.4 °F78 %30.40 in10.0 miWest (270°)3.5 mphClear
7:15 AM5.2 °F-2.2 °F72 %30.41 in10.0 miCalmClear
7:35 AM5.5 °F-1.8 °F72 %30.42 in10.0 miWest (280°)3.5 mphClear
7:55 AM6.1 °F-1.3 °F72 %30.42 in10.0 miCalmScattered Clouds
8:15 AM7.0 °F-0.8 °F71 %30.42 in10.0 miWest (270°)5.8 mphMostly Cloudy
8:35 AM7.3 °F-0.9 °F69 %30.43 in7.0 miCalmScattered Clouds
8:55 AM8.2 °F-0.9 °F66 %30.43 in10.0 miCalmClear
9:15 AM9.3 °F-0.2 °F65 %30.43 in10.0 miCalmClear
9:35 AM10.2 °F0.1 °F64 %30.44 in10.0 miCalmClear
9:55 AM10.9 °F0.0 °F61 %30.44 in10.0 miCalmClear
10:15 AM11.7 °F-0.8 °F58 %30.44 in10.0 miCalmClear
10:35 AM12.7 °F0.7 °F59 %30.44 in10.0 miCalmClear
10:55 AM14.0 °F1.4 °F57 %30.44 in10.0 miCalmClear
11:15 AM14.4 °F0.9 °F55 %30.43 in10.0 miWSW (250°)3.5 mphClear
11:35 AM15.3 °F1.4 °F54 %30.43 in10.0 miCalmClear
11:55 AM16.9 °F2.8 °F54 %30.42 in10.0 miWSW (240°)4.6 mphClear
12:15 PM18.1 °F4.1 °F54 %30.40 in10.0 miSSW (210°)4.6 mphClear
12:35 PM18.0 °F3.7 °F54 %30.39 in10.0 miCalmClear
12:55 PM19.4 °F3.2 °F49 %30.39 in10.0 miWSW (250°)3.5 mphClear
1:15 PM19.6 °F3.9 °F51 %30.38 in10.0 miWSW (240°)6.9 mphClear
1:35 PM20.1 °F5.2 °F52 %30.37 in10.0 miSW (220°)8.1 mphClear
1:55 PM20.7 °F3.4 °F47 %30.36 in10.0 miWest (260°)8.1 mphClear
2:15 PM21.2 °F5.5 °F51 %30.35 in10.0 miWSW (250°)5.8 mphClear
2:35 PM21.6 °F4.5 °F48 %30.35 in10.0 miWSW (250°)8.1 mphClear
2:55 PM22.3 °F6.4 °F51 %30.35 in10.0 miWSW (240°)6.9 mphClear
3:15 PM22.1 °F6.1 °F50 %30.33 in10.0 miWSW (240°)5.8 mphClear
3:35 PM21.2 °F6.4 °F53 %30.33 in10.0 miSW (230°)4.6 mphMostly Cloudy
3:55 PM21.2 °F6.8 °F54 %30.33 in10.0 miWSW (240°)5.8 mphOvercast
4:15 PM21.2 °F6.8 °F54 %30.31 in10.0 miSW (220°)6.9 mphOvercast
4:35 PM21.2 °F7.3 °F55 %30.32 in10.0 miSW (230°)6.9 mphOvercast
4:55 PM21.2 °F6.8 °F54 %30.32 in10.0 miSW (230°)3.5 mphOvercast
5:15 PM21.2 °F7.9 °F57 %30.31 in10.0 miWSW (240°)5.8 mphOvercast
5:35 PM21.6 °F8.2 °F57 %30.31 in10.0 miCalmOvercast
5:55 PM21.6 °F7.7 °F55 %30.30 in10.0 miSW (230°)3.5 mphOvercast
6:15 PM21.7 °F7.5 °F54 %30.30 in10.0 miSW (220°)5.8 mphOvercast
6:35 PM21.9 °F7.9 °F55 %30.31 in10.0 miSW (230°)3.5 mphOvercast
6:55 PM22.1 °F8.6 °F56 %30.30 in10.0 miCalmOvercast
7:15 PM21.9 °F9.3 °F58 %30.29 in10.0 miCalmMostly Cloudy
7:35 PM22.5 °F10.0 °F59 %30.28 in10.0 miSSW (210°)3.5 mphMostly Cloudy
7:55 PM22.5 °F9.9 °F59 %30.27 in10.0 miSSW (200°)3.5 mphMostly Cloudy
8:15 PM22.5 °F10.6 °F60 %30.25 in10.0 miSouth (190°)8.1 mphOvercast
8:35 PM22.1 °F11.3 °F63 %30.24 in10.0 miSouth (190°)6.9 mphMostly Cloudy
8:55 PM22.3 °F12.0 °F65 %30.23 in10.0 miSouth (180°)9.2 mphMostly Cloudy
9:15 PM22.6 °F12.0 °F64 %30.22 in10.0 miSouth (180°)9.2 mphOvercast
9:35 PM23.0 °F12.7 °F65 %30.22 in10.0 miSouth (180°)10.4 mphOvercast
9:55 PM23.5 °F13.1 °F64 %30.22 in10.0 miSouth (180°)9.2 mphOvercast
10:15 PM23.9 °F13.3 °F64 %30.22 in10.0 miSSW (200°)9.2 mphOvercast
10:35 PM23.4 °F17.6 °F79 %30.21 in3.0 miSSW (200°)6.9 mph16.1 mphSnowLight Snow
10:55 PM23.0 °F18.7 °F84 %30.20 in2.5 miSouth (190°)6.9 mphSnowLight Snow
11:15 PM23.5 °F20.1 °F87 %30.19 in4.0 miSSW (200°)8.1 mphSnowLight Snow
11:35 PM23.7 °F20.3 °F87 %30.18 in5.0 miSSW (200°)9.2 mph16.1 mphSnowLight Snow
11:55 PM23.7 °F20.8 °F89 %30.17 in1.2 miSouth (190°)8.1 mphSnowLight Snow
Hourly data recorded from KAAA, located miles away from Lincoln, Illinois







STORIES FROM OUR PARTNERS